contact:dominique.lefevre@mio.osupytheas.fr, maurice.libes@osupytheas.fr, didier.mallarino@osupytheas.fr
Project:EMSO http://www.emso-fr.org/EMSO-France
Depth: 2436.0 m
Title:EMSO Ligure Ouest : Data MII capteur MICROCAT
DateTime_Computer,Latitude,Longitude,Temperature,Conductivity,Pressure,DateTime_Instrument
DateTime_Computer,Latitude,Longitude,degC,S m-1,dbar,DateTime_Instrument
2023-01-12T00:01:54Z,42.805,6.029,13.3009,4.60064,2470.661,2023-1-12T02:08:08Z
2023-01-12T00:04:57Z,42.805,6.029,13.3011,4.60065,2470.624,2023-1-12T02:11:12Z
2023-01-12T00:08:00Z,42.805,6.029,13.3010,4.60064,2470.6,2023-1-12T02:14:15Z
2023-01-12T00:11:03Z,42.805,6.029,13.3013,4.60065,2470.661,2023-1-12T02:17:18Z
2023-01-12T00:14:06Z,42.805,6.029,13.3013,4.60069,2470.661,2023-1-12T02:20:21Z
2023-01-12T00:17:09Z,42.805,6.029,13.3007,4.60064,2470.624,2023-1-12T02:23:24Z
2023-01-12T00:20:13Z,42.805,6.029,13.3010,4.60072,2470.661,2023-1-12T02:26:27Z
2023-01-12T00:23:16Z,42.805,6.029,13.3009,4.60064,2470.614,2023-1-12T02:29:30Z
2023-01-12T00:26:19Z,42.805,6.029,13.3010,4.60065,2470.6,2023-1-12T02:32:33Z
2023-01-12T00:29:22Z,42.805,6.029,13.3009,4.60067,2470.577,2023-1-12T02:35:36Z
2023-01-12T00:32:25Z,42.805,6.029,13.3010,4.60069,2470.586,2023-1-12T02:38:39Z
2023-01-12T00:35:28Z,42.805,6.029,13.3011,4.60074,2470.624,2023-1-12T02:41:42Z
2023-01-12T00:38:31Z,42.805,6.029,13.3009,4.60070,2470.614,2023-1-12T02:44:46Z
2023-01-12T00:41:34Z,42.805,6.029,13.3009,4.60073,2470.624,2023-1-12T02:47:49Z
2023-01-12T00:44:37Z,42.805,6.029,13.3013,4.60072,2470.591,2023-1-12T02:50:52Z
2023-01-12T00:47:40Z,42.805,6.029,13.3011,4.60064,2470.614,2023-1-12T02:53:55Z
2023-01-12T00:50:43Z,42.805,6.029,13.3012,4.60068,2470.637,2023-1-12T02:56:58Z
2023-01-12T00:53:47Z,42.805,6.029,13.3011,4.60064,2470.614,2023-1-12T03:00:01Z
2023-01-12T00:56:50Z,42.805,6.029,13.3014,4.60068,2470.6,2023-1-12T03:03:04Z
2023-01-12T00:59:53Z,42.805,6.029,13.3009,4.60072,2470.614,2023-1-12T03:06:07Z
2023-01-12T01:02:56Z,42.805,6.029,13.3011,4.60066,2470.614,2023-1-12T03:09:10Z
2023-01-12T01:05:59Z,42.805,6.029,13.3011,4.60064,2470.577,2023-1-12T03:12:13Z
2023-01-12T01:09:02Z,42.805,6.029,13.3011,4.60068,2470.577,2023-1-12T03:15:16Z
2023-01-12T01:12:05Z,42.805,6.029,13.3010,4.60069,2470.577,2023-1-12T03:18:20Z
2023-01-12T01:15:08Z,42.805,6.029,13.3010,4.60068,2470.6,2023-1-12T03:21:23Z
2023-01-12T01:18:11Z,42.805,6.029,13.3013,4.60075,2470.614,2023-1-12T03:24:26Z
2023-01-12T01:21:14Z,42.805,6.029,13.3010,4.60067,2470.591,2023-1-12T03:27:29Z
2023-01-12T01:24:17Z,42.805,6.029,13.3011,4.60068,2470.591,2023-1-12T03:30:32Z
2023-01-12T01:27:21Z,42.805,6.029,13.3011,4.60067,2470.637,2023-1-12T03:33:35Z
2023-01-12T01:30:24Z,42.805,6.029,13.3014,4.60070,2470.6,2023-1-12T03:36:38Z
2023-01-12T01:33:27Z,42.805,6.029,13.3011,4.60067,2470.614,2023-1-12T03:39:41Z
2023-01-12T01:36:30Z,42.805,6.029,13.3013,4.60067,2470.614,2023-1-12T03:42:44Z
2023-01-12T01:39:33Z,42.805,6.029,13.3010,4.60069,2470.6,2023-1-12T03:45:47Z
2023-01-12T01:42:36Z,42.805,6.029,13.3011,4.60067,2470.591,2023-1-12T03:48:50Z
2023-01-12T01:45:39Z,42.805,6.029,13.3012,4.60069,2470.577,2023-1-12T03:51:54Z
2023-01-12T01:48:42Z,42.805,6.029,13.3013,4.60075,2470.591,2023-1-12T03:54:57Z
2023-01-12T01:51:45Z,42.805,6.029,13.3012,4.60069,2470.544,2023-1-12T03:58:00Z
2023-01-12T01:54:48Z,42.805,6.029,13.3011,4.60070,2470.591,2023-1-12T04:01:03Z
2023-01-12T01:57:51Z,42.805,6.029,13.3011,4.60066,2470.6,2023-1-12T04:04:06Z
2023-01-12T02:00:54Z,42.805,6.029,13.3012,4.60072,2470.553,2023-1-12T04:07:09Z
2023-01-12T02:03:58Z,42.805,6.029,13.3011,4.60069,2470.577,2023-1-12T04:10:12Z
2023-01-12T02:07:01Z,42.805,6.029,13.3011,4.60066,2470.577,2023-1-12T04:13:15Z
2023-01-12T02:10:04Z,42.805,6.029,13.3011,4.60068,2470.6,2023-1-12T04:16:18Z
2023-01-12T02:13:07Z,42.805,6.029,13.3012,4.60067,2470.577,2023-1-12T04:19:21Z
2023-01-12T02:16:10Z,42.805,6.029,13.3006,4.60068,2470.637,2023-1-12T04:22:24Z
2023-01-12T02:19:13Z,42.805,6.029,13.3006,4.60063,2470.6,2023-1-12T04:25:28Z
2023-01-12T02:22:16Z,42.805,6.029,13.3014,4.60066,2470.577,2023-1-12T04:28:31Z
2023-01-12T02:25:19Z,42.805,6.029,13.3013,4.60062,2470.586,2023-1-12T04:31:34Z
2023-01-12T02:28:22Z,42.805,6.029,13.3012,4.60064,2470.6,2023-1-12T04:34:37Z
2023-01-12T02:31:25Z,42.805,6.029,13.3012,4.60063,2470.577,2023-1-12T04:37:40Z
2023-01-12T02:34:28Z,42.805,6.029,13.3011,4.60068,2470.614,2023-1-12T04:40:43Z
2023-01-12T02:37:32Z,42.805,6.029,13.3009,4.60069,2470.577,2023-1-12T04:43:46Z
2023-01-12T02:40:35Z,42.805,6.029,13.3011,4.60065,2470.577,2023-1-12T04:46:49Z
2023-01-12T02:43:38Z,42.805,6.029,13.3012,4.60067,2470.567,2023-1-12T04:49:52Z
2023-01-12T02:46:41Z,42.805,6.029,13.3011,4.60067,2470.577,2023-1-12T04:52:55Z
2023-01-12T02:49:44Z,42.805,6.029,13.3006,4.60064,2470.591,2023-1-12T04:55:58Z
2023-01-12T02:52:47Z,42.805,6.029,13.3010,4.60067,2470.553,2023-1-12T04:59:01Z
2023-01-12T02:55:50Z,42.805,6.029,13.3011,4.60067,2470.567,2023-1-12T05:02:05Z
2023-01-12T02:58:53Z,42.805,6.029,13.3012,4.60069,2470.577,2023-1-12T05:05:08Z
2023-01-12T03:01:56Z,42.805,6.029,13.3011,4.60067,2470.577,2023-1-12T05:08:11Z
2023-01-12T03:04:59Z,42.805,6.029,13.3011,4.60065,2470.53,2023-1-12T05:11:14Z
2023-01-12T03:08:02Z,42.805,6.029,13.3011,4.60064,2470.591,2023-1-12T05:14:17Z
2023-01-12T03:11:05Z,42.805,6.029,13.3009,4.60068,2470.567,2023-1-12T05:17:20Z
2023-01-12T03:14:09Z,42.805,6.029,13.3011,4.60066,2470.544,2023-1-12T05:20:23Z
2023-01-12T03:17:12Z,42.805,6.029,13.3010,4.60069,2470.553,2023-1-12T05:23:26Z
2023-01-12T03:20:15Z,42.805,6.029,13.3012,4.60069,2470.577,2023-1-12T05:26:29Z
2023-01-12T03:23:18Z,42.805,6.029,13.3011,4.60069,2470.553,2023-1-12T05:29:32Z
2023-01-12T03:26:21Z,42.805,6.029,13.3011,4.60069,2470.567,2023-1-12T05:32:35Z
2023-01-12T03:29:24Z,42.805,6.029,13.3008,4.60069,2470.553,2023-1-12T05:35:39Z
2023-01-12T03:32:27Z,42.805,6.029,13.3010,4.60067,2470.53,2023-1-12T05:38:42Z
2023-01-12T03:35:30Z,42.805,6.029,13.3011,4.60066,2470.553,2023-1-12T05:41:45Z
2023-01-12T03:38:33Z,42.805,6.029,13.3012,4.60067,2470.553,2023-1-12T05:44:48Z
2023-01-12T03:41:36Z,42.805,6.029,13.3013,4.60065,2470.553,2023-1-12T05:47:51Z
2023-01-12T03:44:39Z,42.805,6.029,13.3014,4.60069,2470.577,2023-1-12T05:50:54Z
2023-01-12T03:47:43Z,42.805,6.029,13.3008,4.60067,2470.553,2023-1-12T05:53:57Z
2023-01-12T03:50:46Z,42.805,6.029,13.3011,4.60069,2470.553,2023-1-12T05:57:00Z
2023-01-12T03:53:49Z,42.805,6.029,13.3014,4.60067,2470.544,2023-1-12T06:00:03Z
2023-01-12T03:56:52Z,42.805,6.029,13.3014,4.60068,2470.553,2023-1-12T06:03:06Z
2023-01-12T03:59:55Z,42.805,6.029,13.3014,4.60064,2470.553,2023-1-12T06:06:09Z
2023-01-12T04:02:58Z,42.805,6.029,13.3014,4.60069,2470.577,2023-1-12T06:09:13Z
2023-01-12T04:06:01Z,42.805,6.029,13.3013,4.60067,2470.553,2023-1-12T06:12:16Z
2023-01-12T04:09:04Z,42.805,6.029,13.3010,4.60067,2470.591,2023-1-12T06:15:19Z
2023-01-12T04:12:07Z,42.805,6.029,13.3014,4.60067,2470.553,2023-1-12T06:18:22Z
2023-01-12T04:15:10Z,42.805,6.029,13.3011,4.60069,2470.544,2023-1-12T06:21:25Z
2023-01-12T04:18:13Z,42.805,6.029,13.3008,4.60066,2470.553,2023-1-12T06:24:28Z
2023-01-12T04:21:16Z,42.805,6.029,13.3015,4.60067,2470.553,2023-1-12T06:27:31Z
2023-01-12T04:24:20Z,42.805,6.029,13.3013,4.60064,2470.577,2023-1-12T06:30:34Z
2023-01-12T04:27:23Z,42.805,6.029,13.3013,4.60064,2470.553,2023-1-12T06:33:37Z
2023-01-12T04:30:26Z,42.805,6.029,13.3014,4.60067,2470.544,2023-1-12T06:36:40Z
2023-01-12T04:33:29Z,42.805,6.029,13.3015,4.60067,2470.577,2023-1-12T06:39:43Z
2023-01-12T04:36:32Z,42.805,6.029,13.3013,4.60064,2470.553,2023-1-12T06:42:47Z
2023-01-12T04:39:35Z,42.805,6.029,13.3014,4.60068,2470.567,2023-1-12T06:45:50Z
2023-01-12T04:42:38Z,42.805,6.029,13.3011,4.60064,2470.591,2023-1-12T06:48:53Z
2023-01-12T04:45:41Z,42.805,6.029,13.3013,4.60065,2470.553,2023-1-12T06:51:56Z
2023-01-12T04:48:44Z,42.805,6.029,13.3011,4.60067,2470.567,2023-1-12T06:54:59Z
2023-01-12T04:51:47Z,42.805,6.029,13.3014,4.60065,2470.53,2023-1-12T06:58:02Z
2023-01-12T04:54:50Z,42.805,6.029,13.3015,4.60067,2470.553,2023-1-12T07:01:05Z
2023-01-12T04:57:53Z,42.805,6.029,13.3010,4.60066,2470.577,2023-1-12T07:04:08Z
2023-01-12T05:00:57Z,42.805,6.029,13.3014,4.60069,2470.567,2023-1-12T07:07:11Z
2023-01-12T05:04:00Z,42.805,6.029,13.3012,4.60067,2470.591,2023-1-12T07:10:14Z
2023-01-12T05:07:03Z,42.805,6.029,13.3010,4.60067,2470.614,2023-1-12T07:13:17Z
2023-01-12T05:10:06Z,42.805,6.029,13.3010,4.60066,2470.567,2023-1-12T07:16:21Z
2023-01-12T05:13:09Z,42.805,6.029,13.3008,4.60064,2470.553,2023-1-12T07:19:24Z
2023-01-12T05:16:12Z,42.805,6.029,13.3009,4.60064,2470.567,2023-1-12T07:22:27Z
2023-01-12T05:19:15Z,42.805,6.029,13.3013,4.60064,2470.567,2023-1-12T07:25:30Z
2023-01-12T05:22:18Z,42.805,6.029,13.3009,4.60066,2470.544,2023-1-12T07:28:33Z
2023-01-12T05:25:21Z,42.805,6.029,13.3010,4.60064,2470.553,2023-1-12T07:31:36Z
2023-01-12T05:28:24Z,42.805,6.029,13.3011,4.60064,2470.553,2023-1-12T07:34:39Z
2023-01-12T05:31:27Z,42.805,6.029,13.3009,4.60064,2470.567,2023-1-12T07:37:42Z
2023-01-12T05:34:31Z,42.805,6.029,13.3011,4.60067,2470.591,2023-1-12T07:40:45Z
2023-01-12T05:37:34Z,42.805,6.029,13.3009,4.60063,2470.553,2023-1-12T07:43:48Z
2023-01-12T05:40:37Z,42.805,6.029,13.3010,4.60063,2470.577,2023-1-12T07:46:51Z
2023-01-12T05:43:40Z,42.805,6.029,13.3011,4.60065,2470.577,2023-1-12T07:49:54Z
2023-01-12T05:46:43Z,42.805,6.029,13.3010,4.60066,2470.577,2023-1-12T07:52:58Z
2023-01-12T05:49:46Z,42.805,6.029,13.3014,4.60066,2470.577,2023-1-12T07:56:01Z
2023-01-12T05:52:49Z,42.805,6.029,13.3014,4.60065,2470.577,2023-1-12T07:59:04Z
2023-01-12T05:55:52Z,42.805,6.029,13.3009,4.60066,2470.567,2023-1-12T08:02:07Z
2023-01-12T05:58:55Z,42.805,6.029,13.3014,4.60064,2470.6,2023-1-12T08:05:10Z
2023-01-12T06:01:58Z,42.805,6.029,13.3013,4.60066,2470.591,2023-1-12T08:08:13Z
2023-01-12T06:05:01Z,42.805,6.029,13.3014,4.60067,2470.553,2023-1-12T08:11:16Z
2023-01-12T06:08:04Z,42.805,6.029,13.3011,4.60064,2470.6,2023-1-12T08:14:19Z
2023-01-12T06:11:08Z,42.805,6.029,13.3011,4.60064,2470.553,2023-1-12T08:17:22Z
2023-01-12T06:14:11Z,42.805,6.029,13.3013,4.60066,2470.577,2023-1-12T08:20:25Z
2023-01-12T06:17:14Z,42.805,6.029,13.3013,4.60066,2470.577,2023-1-12T08:23:28Z
2023-01-12T06:20:17Z,42.805,6.029,13.3011,4.60067,2470.614,2023-1-12T08:26:32Z
2023-01-12T06:23:20Z,42.805,6.029,13.3013,4.60062,2470.614,2023-1-12T08:29:35Z
2023-01-12T06:26:23Z,42.805,6.029,13.3016,4.60065,2470.577,2023-1-12T08:32:38Z
2023-01-12T06:29:26Z,42.805,6.029,13.3011,4.60063,2470.6,2023-1-12T08:35:41Z
2023-01-12T06:32:29Z,42.805,6.029,13.3011,4.60063,2470.614,2023-1-12T08:38:44Z
2023-01-12T06:35:32Z,42.805,6.029,13.3011,4.60063,2470.577,2023-1-12T08:41:47Z
2023-01-12T06:38:35Z,42.805,6.029,13.3013,4.60064,2470.637,2023-1-12T08:44:50Z
2023-01-12T06:41:38Z,42.805,6.029,13.3014,4.60064,2470.6,2023-1-12T08:47:53Z
2023-01-12T06:44:42Z,42.805,6.029,13.3012,4.60064,2470.614,2023-1-12T08:50:56Z
2023-01-12T06:47:45Z,42.805,6.029,13.3011,4.60063,2470.624,2023-1-12T08:53:59Z
2023-01-12T06:50:48Z,42.805,6.029,13.3014,4.60063,2470.637,2023-1-12T08:57:02Z
2023-01-12T06:53:51Z,42.805,6.029,13.3012,4.60064,2470.6,2023-1-12T09:00:05Z
2023-01-12T06:56:54Z,42.805,6.029,13.3010,4.60064,2470.624,2023-1-12T09:03:09Z
2023-01-12T06:59:57Z,42.805,6.029,13.3013,4.60067,2470.614,2023-1-12T09:06:12Z
2023-01-12T07:03:00Z,42.805,6.029,13.3014,4.60064,2470.624,2023-1-12T09:09:15Z
2023-01-12T07:06:03Z,42.805,6.029,13.3013,4.60065,2470.637,2023-1-12T09:12:18Z
2023-01-12T07:09:06Z,42.805,6.029,13.3011,4.60064,2470.614,2023-1-12T09:15:21Z
2023-01-12T07:12:09Z,42.805,6.029,13.3013,4.60066,2470.6,2023-1-12T09:18:24Z
2023-01-12T07:15:12Z,42.805,6.029,13.3012,4.60064,2470.624,2023-1-12T09:21:27Z
2023-01-12T07:18:15Z,42.805,6.029,13.3014,4.60062,2470.614,2023-1-12T09:24:30Z
2023-01-12T07:21:18Z,42.805,6.029,13.3008,4.60062,2470.614,2023-1-12T09:27:33Z
2023-01-12T07:24:22Z,42.805,6.029,13.3015,4.60064,2470.646,2023-1-12T09:30:36Z
2023-01-12T07:27:25Z,42.805,6.029,13.3011,4.60062,2470.624,2023-1-12T09:33:39Z
2023-01-12T07:30:28Z,42.805,6.029,13.3011,4.60064,2470.646,2023-1-12T09:36:42Z
2023-01-12T07:33:31Z,42.805,6.029,13.3013,4.60063,2470.646,2023-1-12T09:39:46Z
2023-01-12T07:36:34Z,42.805,6.029,13.3013,4.60062,2470.661,2023-1-12T09:42:49Z
2023-01-12T07:39:37Z,42.805,6.029,13.3010,4.60064,2470.661,2023-1-12T09:45:52Z
2023-01-12T07:42:40Z,42.805,6.029,13.3013,4.60062,2470.646,2023-1-12T09:48:55Z
2023-01-12T07:45:43Z,42.805,6.029,13.3013,4.60063,2470.707,2023-1-12T09:51:58Z
2023-01-12T07:48:46Z,42.805,6.029,13.3006,4.60064,2470.661,2023-1-12T09:55:01Z
2023-01-12T07:51:49Z,42.805,6.029,13.3010,4.60063,2470.67,2023-1-12T09:58:04Z
2023-01-12T07:54:52Z,42.805,6.029,13.3009,4.60064,2470.646,2023-1-12T10:01:07Z
2023-01-12T07:57:56Z,42.805,6.029,13.3009,4.60064,2470.646,2023-1-12T10:04:10Z
2023-01-12T08:00:59Z,42.805,6.029,13.3015,4.60062,2470.661,2023-1-12T10:07:13Z
2023-01-12T08:04:02Z,42.805,6.029,13.3013,4.60064,2470.646,2023-1-12T10:10:16Z
2023-01-12T08:07:05Z,42.805,6.029,13.3011,4.60062,2470.656,2023-1-12T10:13:20Z
2023-01-12T08:10:08Z,42.805,6.029,13.3010,4.60063,2470.67,2023-1-12T10:16:23Z
2023-01-12T08:13:11Z,42.805,6.029,13.3009,4.60064,2470.67,2023-1-12T10:19:26Z
2023-01-12T08:16:14Z,42.805,6.029,13.3010,4.60062,2470.707,2023-1-12T10:22:29Z
2023-01-12T08:19:17Z,42.805,6.029,13.3011,4.60064,2470.693,2023-1-12T10:25:32Z
2023-01-12T08:22:20Z,42.805,6.029,13.3016,4.60062,2470.707,2023-1-12T10:28:35Z
2023-01-12T08:25:23Z,42.805,6.029,13.3010,4.60064,2470.707,2023-1-12T10:31:38Z
2023-01-12T08:28:26Z,42.805,6.029,13.3014,4.60063,2470.679,2023-1-12T10:34:41Z
2023-01-12T08:31:30Z,42.805,6.029,13.3013,4.60064,2470.73,2023-1-12T10:37:44Z
2023-01-12T08:34:33Z,42.805,6.029,13.3010,4.60063,2470.67,2023-1-12T10:40:47Z
2023-01-12T08:37:36Z,42.805,6.029,13.3011,4.60062,2470.693,2023-1-12T10:43:50Z
2023-01-12T08:40:39Z,42.805,6.029,13.3016,4.60064,2470.693,2023-1-12T10:46:54Z
2023-01-12T08:43:42Z,42.805,6.029,13.3014,4.60064,2470.717,2023-1-12T10:49:57Z
2023-01-12T08:46:45Z,42.805,6.029,13.3012,4.60066,2470.693,2023-1-12T10:53:00Z
2023-01-12T08:49:48Z,42.805,6.029,13.3010,4.60064,2470.693,2023-1-12T10:56:03Z
2023-01-12T08:52:51Z,42.805,6.029,13.3015,4.60064,2470.717,2023-1-12T10:59:06Z
2023-01-12T08:55:54Z,42.805,6.029,13.3013,4.60064,2470.74,2023-1-12T11:02:09Z
2023-01-12T08:58:57Z,42.805,6.029,13.3012,4.60064,2470.717,2023-1-12T11:05:12Z
2023-01-12T09:02:00Z,42.805,6.029,13.3014,4.60065,2470.754,2023-1-12T11:08:15Z
2023-01-12T09:05:04Z,42.805,6.029,13.3014,4.60065,2470.73,2023-1-12T11:11:18Z
2023-01-12T09:08:07Z,42.805,6.029,13.3009,4.60064,2470.754,2023-1-12T11:14:21Z
2023-01-12T09:11:10Z,42.805,6.029,13.3014,4.60065,2470.754,2023-1-12T11:17:24Z
2023-01-12T09:14:13Z,42.805,6.029,13.3012,4.60064,2470.717,2023-1-12T11:20:28Z
2023-01-12T09:17:16Z,42.805,6.029,13.3011,4.60066,2470.717,2023-1-12T11:23:31Z
2023-01-12T09:20:19Z,42.805,6.029,13.3013,4.60066,2470.74,2023-1-12T11:26:34Z
2023-01-12T09:23:22Z,42.805,6.029,13.3009,4.60064,2470.693,2023-1-12T11:29:37Z
2023-01-12T09:26:25Z,42.805,6.029,13.3017,4.60064,2470.74,2023-1-12T11:32:40Z
2023-01-12T09:29:28Z,42.805,6.029,13.3011,4.60063,2470.74,2023-1-12T11:35:43Z
2023-01-12T09:32:31Z,42.805,6.029,13.3014,4.60064,2470.754,2023-1-12T11:38:46Z
2023-01-12T09:35:34Z,42.805,6.029,13.3011,4.60064,2470.717,2023-1-12T11:41:49Z
2023-01-12T09:38:38Z,42.805,6.029,13.3016,4.60067,2470.8,2023-1-12T11:44:52Z
2023-01-12T09:41:41Z,42.805,6.029,13.3015,4.60064,2470.693,2023-1-12T11:47:55Z
2023-01-12T09:44:44Z,42.805,6.029,13.3013,4.60064,2470.717,2023-1-12T11:50:59Z
2023-01-12T09:47:47Z,42.805,6.029,13.3010,4.60064,2470.763,2023-1-12T11:54:02Z
2023-01-12T09:50:50Z,42.805,6.029,13.3014,4.60064,2470.754,2023-1-12T11:57:05Z
2023-01-12T09:53:53Z,42.805,6.029,13.3016,4.60064,2470.754,2023-1-12T12:00:08Z
2023-01-12T09:56:56Z,42.805,6.029,13.3014,4.60064,2470.74,2023-1-12T12:03:11Z
2023-01-12T09:59:59Z,42.805,6.029,13.3013,4.60067,2470.754,2023-1-12T12:06:14Z
2023-01-12T10:03:02Z,42.805,6.029,13.3015,4.60064,2470.693,2023-1-12T12:09:17Z
2023-01-12T10:06:05Z,42.805,6.029,13.3013,4.60064,2470.74,2023-1-12T12:12:20Z
2023-01-12T10:09:08Z,42.805,6.029,13.3014,4.60064,2470.787,2023-1-12T12:15:23Z
2023-01-12T10:12:12Z,42.805,6.029,13.3014,4.60066,2470.74,2023-1-12T12:18:26Z
2023-01-12T10:15:15Z,42.805,6.029,13.3014,4.60064,2470.74,2023-1-12T12:21:29Z
2023-01-12T10:18:18Z,42.805,6.029,13.3015,4.60064,2470.754,2023-1-12T12:24:33Z
2023-01-12T10:21:21Z,42.805,6.029,13.3014,4.60065,2470.74,2023-1-12T12:27:36Z
2023-01-12T10:24:24Z,42.805,6.029,13.3013,4.60065,2470.754,2023-1-12T12:30:39Z
2023-01-12T10:27:27Z,42.805,6.029,13.3012,4.60068,2470.717,2023-1-12T12:33:42Z
2023-01-12T10:30:30Z,42.805,6.029,13.3015,4.60069,2470.754,2023-1-12T12:36:45Z
2023-01-12T10:33:33Z,42.805,6.029,13.3011,4.60067,2470.73,2023-1-12T12:39:48Z
2023-01-12T10:36:36Z,42.805,6.029,13.3014,4.60067,2470.763,2023-1-12T12:42:51Z
2023-01-12T10:39:39Z,42.805,6.029,13.3012,4.60067,2470.763,2023-1-12T12:45:54Z
2023-01-12T10:42:42Z,42.805,6.029,13.3015,4.60069,2470.74,2023-1-12T12:48:57Z
2023-01-12T10:45:46Z,42.805,6.029,13.3012,4.60065,2470.754,2023-1-12T12:52:00Z
2023-01-12T10:48:49Z,42.805,6.029,13.3017,4.60067,2470.763,2023-1-12T12:55:03Z
2023-01-12T10:51:52Z,42.805,6.029,13.3016,4.60068,2470.763,2023-1-12T12:58:07Z
2023-01-12T10:54:55Z,42.805,6.029,13.3012,4.60070,2470.754,2023-1-12T13:01:10Z
2023-01-12T10:57:58Z,42.805,6.029,13.3009,4.60066,2470.754,2023-1-12T13:04:13Z
2023-01-12T11:01:01Z,42.805,6.029,13.3014,4.60065,2470.763,2023-1-12T13:07:16Z
2023-01-12T11:04:04Z,42.805,6.029,13.3012,4.60069,2470.74,2023-1-12T13:10:19Z
2023-01-12T11:07:07Z,42.805,6.029,13.3013,4.60064,2470.777,2023-1-12T13:13:22Z
2023-01-12T11:10:10Z,42.805,6.029,13.3013,4.60064,2470.754,2023-1-12T13:16:25Z
2023-01-12T11:13:13Z,42.805,6.029,13.3012,4.60066,2470.777,2023-1-12T13:19:28Z
2023-01-12T11:16:16Z,42.805,6.029,13.3017,4.60066,2470.754,2023-1-12T13:22:31Z
2023-01-12T11:19:20Z,42.805,6.029,13.3015,4.60065,2470.754,2023-1-12T13:25:34Z
2023-01-12T11:22:23Z,42.805,6.029,13.3015,4.60067,2470.74,2023-1-12T13:28:37Z
2023-01-12T11:25:26Z,42.805,6.029,13.3015,4.60065,2470.717,2023-1-12T13:31:41Z
2023-01-12T11:28:29Z,42.805,6.029,13.3014,4.60063,2470.74,2023-1-12T13:34:44Z
2023-01-12T11:31:32Z,42.805,6.029,13.3015,4.60064,2470.754,2023-1-12T13:37:47Z
2023-01-12T11:34:35Z,42.805,6.029,13.3014,4.60065,2470.73,2023-1-12T13:40:50Z
2023-01-12T11:37:38Z,42.805,6.029,13.3013,4.60064,2470.74,2023-1-12T13:43:53Z
2023-01-12T11:40:41Z,42.805,6.029,13.3014,4.60071,2470.763,2023-1-12T13:46:56Z
2023-01-12T11:43:44Z,42.805,6.029,13.3015,4.60064,2470.74,2023-1-12T13:49:59Z
2023-01-12T11:46:47Z,42.805,6.029,13.3016,4.60064,2470.717,2023-1-12T13:53:02Z
2023-01-12T11:49:50Z,42.805,6.029,13.3016,4.60064,2470.754,2023-1-12T13:56:05Z
2023-01-12T11:52:54Z,42.805,6.029,13.3014,4.60065,2470.777,2023-1-12T13:59:08Z
2023-01-12T11:55:57Z,42.805,6.029,13.3015,4.60064,2470.74,2023-1-12T14:02:12Z
2023-01-12T11:59:00Z,42.805,6.029,13.3015,4.60064,2470.74,2023-1-12T14:05:15Z
2023-01-12T12:02:03Z,42.805,6.029,13.3015,4.60065,2470.717,2023-1-12T14:08:18Z
2023-01-12T12:05:06Z,42.805,6.029,13.3016,4.60067,2470.754,2023-1-12T14:11:21Z
2023-01-12T12:08:09Z,42.805,6.029,13.3016,4.60069,2470.717,2023-1-12T14:14:24Z
2023-01-12T12:11:12Z,42.805,6.029,13.3019,4.60070,2470.754,2023-1-12T14:17:27Z
2023-01-12T12:14:15Z,42.805,6.029,13.3013,4.60067,2470.693,2023-1-12T14:20:30Z
2023-01-12T12:17:18Z,42.805,6.029,13.3014,4.60068,2470.754,2023-1-12T14:23:33Z
2023-01-12T12:20:21Z,42.805,6.029,13.3011,4.60066,2470.73,2023-1-12T14:26:36Z
2023-01-12T12:23:24Z,42.805,6.029,13.3017,4.60065,2470.717,2023-1-12T14:29:39Z
2023-01-12T12:26:28Z,42.805,6.029,13.3015,4.60069,2470.74,2023-1-12T14:32:42Z
2023-01-12T12:29:31Z,42.805,6.029,13.3011,4.60072,2470.754,2023-1-12T14:35:46Z
2023-01-12T12:32:34Z,42.805,6.029,13.3019,4.60069,2470.693,2023-1-12T14:38:49Z
2023-01-12T12:35:37Z,42.805,6.029,13.3015,4.60068,2470.717,2023-1-12T14:41:52Z
2023-01-12T12:38:40Z,42.805,6.029,13.3016,4.60067,2470.717,2023-1-12T14:44:55Z
2023-01-12T12:41:43Z,42.805,6.029,13.3014,4.60068,2470.717,2023-1-12T14:47:58Z
2023-01-12T12:44:46Z,42.805,6.029,13.3011,4.60066,2470.693,2023-1-12T14:51:01Z
2023-01-12T12:47:49Z,42.805,6.029,13.3015,4.60064,2470.73,2023-1-12T14:54:04Z
2023-01-12T12:50:52Z,42.805,6.029,13.3011,4.60066,2470.707,2023-1-12T14:57:07Z
2023-01-12T12:53:55Z,42.805,6.029,13.3012,4.60066,2470.693,2023-1-12T15:00:10Z
2023-01-12T12:56:58Z,42.805,6.029,13.3016,4.60065,2470.707,2023-1-12T15:03:13Z
2023-01-12T13:00:02Z,42.805,6.029,13.3014,4.60067,2470.693,2023-1-12T15:06:16Z
2023-01-12T13:03:05Z,42.805,6.029,13.3014,4.60064,2470.67,2023-1-12T15:09:20Z
2023-01-12T13:06:08Z,42.805,6.029,13.3016,4.60068,2470.646,2023-1-12T15:12:23Z
2023-01-12T13:09:11Z,42.805,6.029,13.3012,4.60067,2470.67,2023-1-12T15:15:26Z
2023-01-12T13:12:14Z,42.805,6.029,13.3017,4.60069,2470.684,2023-1-12T15:18:29Z
2023-01-12T13:15:17Z,42.805,6.029,13.3014,4.60067,2470.693,2023-1-12T15:21:32Z
2023-01-12T13:18:20Z,42.805,6.029,13.3014,4.60072,2470.684,2023-1-12T15:24:35Z
2023-01-12T13:21:23Z,42.805,6.029,13.3013,4.60067,2470.67,2023-1-12T15:27:38Z
2023-01-12T13:24:26Z,42.805,6.029,13.3015,4.60069,2470.707,2023-1-12T15:30:41Z
2023-01-12T13:27:29Z,42.805,6.029,13.3015,4.60064,2470.67,2023-1-12T15:33:44Z
2023-01-12T13:30:32Z,42.805,6.029,13.3013,4.60066,2470.661,2023-1-12T15:36:47Z
2023-01-12T13:33:36Z,42.805,6.029,13.3015,4.60067,2470.684,2023-1-12T15:39:51Z
2023-01-12T13:36:39Z,42.805,6.029,13.3015,4.60064,2470.684,2023-1-12T15:42:54Z
2023-01-12T13:39:42Z,42.805,6.029,13.3016,4.60064,2470.624,2023-1-12T15:45:57Z
2023-01-12T13:42:45Z,42.805,6.029,13.3018,4.60066,2470.633,2023-1-12T15:49:00Z
2023-01-12T13:45:48Z,42.805,6.029,13.3021,4.60064,2470.684,2023-1-12T15:52:03Z
2023-01-12T13:48:51Z,42.805,6.029,13.3014,4.60067,2470.684,2023-1-12T15:55:06Z
2023-01-12T13:51:54Z,42.805,6.029,13.3013,4.60067,2470.67,2023-1-12T15:58:09Z
2023-01-12T13:54:57Z,42.805,6.029,13.3017,4.60067,2470.61,2023-1-12T16:01:12Z
2023-01-12T13:58:00Z,42.805,6.029,13.3014,4.60068,2470.624,2023-1-12T16:04:15Z
2023-01-12T14:01:03Z,42.805,6.029,13.3015,4.60067,2470.67,2023-1-12T16:07:18Z
2023-01-12T14:04:06Z,42.805,6.029,13.3014,4.60068,2470.661,2023-1-12T16:10:21Z
2023-01-12T14:07:10Z,42.805,6.029,13.3018,4.60069,2470.624,2023-1-12T16:13:25Z
2023-01-12T14:10:13Z,42.805,6.029,13.3018,4.60069,2470.67,2023-1-12T16:16:28Z
2023-01-12T14:13:16Z,42.805,6.029,13.3014,4.60066,2470.624,2023-1-12T16:19:31Z
2023-01-12T14:16:19Z,42.805,6.029,13.3015,4.60072,2470.6,2023-1-12T16:22:34Z
2023-01-12T14:19:22Z,42.805,6.029,13.3016,4.60067,2470.637,2023-1-12T16:25:37Z
2023-01-12T14:22:25Z,42.805,6.029,13.3014,4.60067,2470.624,2023-1-12T16:28:40Z
2023-01-12T14:25:28Z,42.805,6.029,13.3021,4.60072,2470.646,2023-1-12T16:31:43Z
2023-01-12T14:28:31Z,42.805,6.029,13.3015,4.60069,2470.661,2023-1-12T16:34:46Z
2023-01-12T14:31:34Z,42.805,6.029,13.3017,4.60066,2470.646,2023-1-12T16:37:49Z
2023-01-12T14:34:37Z,42.805,6.029,13.3013,4.60066,2470.624,2023-1-12T16:40:52Z
2023-01-12T14:37:40Z,42.805,6.029,13.3022,4.60064,2470.637,2023-1-12T16:43:55Z
2023-01-12T14:40:44Z,42.805,6.029,13.3014,4.60069,2470.637,2023-1-12T16:46:59Z
2023-01-12T14:43:47Z,42.805,6.029,13.3018,4.60067,2470.661,2023-1-12T16:50:02Z
2023-01-12T14:46:50Z,42.805,6.029,13.3017,4.60066,2470.637,2023-1-12T16:53:05Z
2023-01-12T14:49:53Z,42.805,6.029,13.3018,4.60069,2470.624,2023-1-12T16:56:08Z
2023-01-12T14:52:56Z,42.805,6.029,13.3019,4.60066,2470.67,2023-1-12T16:59:11Z
2023-01-12T14:55:59Z,42.805,6.029,13.3015,4.60067,2470.624,2023-1-12T17:02:14Z
2023-01-12T14:59:02Z,42.805,6.029,13.3011,4.60067,2470.624,2023-1-12T17:05:17Z
2023-01-12T15:02:05Z,42.805,6.029,13.3011,4.60067,2470.614,2023-1-12T17:08:20Z
2023-01-12T15:05:08Z,42.805,6.029,13.3011,4.60066,2470.614,2023-1-12T17:11:23Z
2023-01-12T15:08:11Z,42.805,6.029,13.3014,4.60068,2470.591,2023-1-12T17:14:26Z
2023-01-12T15:11:15Z,42.805,6.029,13.3019,4.60068,2470.624,2023-1-12T17:17:29Z